{"data":{"norad_id":59384,"intl_designator":"2024-062L","name":"STARLINK-31715","alt_names":[],"object_type":"PAYLOAD","status":"ACTIVE","operator":null,"country":"US","launch_date":"2024-04-02","launch_site_code":"AFWTR","launch_vehicle":null,"mission":null,"orbit_class":"UNKNOWN","rcs_meters":null,"size_class":null,"mass_kg":null,"dimensions":null,"purposes":["comms"],"wikipedia_slug":null,"has_3d_model":false,"image_url":null,"decayed_at":null,"tle_current":{"epoch":"2026-09-21T18:13:38.837856Z","epoch_age_seconds":53458,"freshness":"FRESH","line1":"1 59384U 24062L   26264.75947729 -.00000468  00000+0 -27068-5 0  9990","line2":"2 59384  53.1608  61.8862 0001240  81.2277 278.8866 15.34389319139733","mean_motion":15.34389319,"eccentricity":0.000124,"inclination_deg":53.1608,"raan_deg":61.8862,"arg_perigee_deg":81.2277,"mean_anomaly_deg":278.8866,"bstar":-2.7068e-6,"rev_number":13973,"period_min":93.848411362671,"perigee_km":461.88671844785,"apogee_km":463.58325470052,"semimajor_km":6840.8719865742,"source":"CELESTRAK","updated_at":"2026-09-22T09:00:48.909721Z"}}}